ONEWEB-0424, 50497

Orbit data source: Space-Track

ONEWEB-0424, 50497 is a payload satellite owned by One Web (NAA) (UK) in LEO that was launched on Mon, 27 Dec 2021 UTC via a SOYUZ-2-1B launch vehicle from the Tyuratam Missile And Space Complex (TTMTR). Payload-class satellites include a variety of spacecraft equipped with specific instruments for various scientific and technological missions. These include communications satellites like Starlink; space stations such as the ISS; scientific satellites like the Hubble; Earth observation satellites from companies like Planet Labs, Umbra, and HawkEye 360; GPS; miniature CubeSats for education and research; and military/defense satellites.

Loading next visibility...
Identifier
50497, 2021-132AE
Orbit
LEO
Country
Flag of UKUK
Related business
Manufacturer
One Web
Mission
Operational Commercial Communications
Bus & Motor
ARROW, Unknown motor
Mass
148 kg wet, ~140 kg dry
Launch date (UTC)
2021-12-27 (4 years ago)
Launch vehicle
SOYUZ-2-1B
Launch site
Tyuratam Missile And Space Complex (TTMTR)
Object type
Payload
Rocket body
Debris
Shape & HBR
Trap Box + 2 Pan, 6.7 m
Radar Cross Section
3.464 m², Large (>1 m²)

Expand to show TLE details & history
Last TLE update: 2 days ago

TLE from 2 days ago
0 ONEWEB-0424
1 50497U 21132AE  26171.38946785  .00000005  00000-0 -20817-4 0  9999
2 50497  87.9172 334.8173 0002107  99.6840 260.4531 13.18685330222067
Epoch: 2026-06-20T09:20Z
TLE epoch observation values (Epoch: 2026-06-20T09:20:50.022Z)
Latitude
0.00007°
Longitude
-73.99591°
Altitude
1,192.911 km
Speed
7.257 km/s
True Right ascension
22h 19m 16s
True Declination
0° 00' 00"
Sunlit
Object was in daylight at epoch
Visualization orbit readout
Latitude
Unknown
Longitude
Unknown
Altitude
Unknown
Speed
Unknown
Apparent Right ascension
Unknown
Apparent Declination
Unknown
Sunlit
N/A
Visualization observer readout
Local Sidereal Time
21:34:11
Azimuth
Unknown
Elevation
Unknown
Doppler factor
Unknown
Orbital elements
Apogee altitude
1,188.447 km
Perigee altitude
1,185.259 km
Semi-major axis
7,564.99 km
Eccentricity
0.00021
Inclination
87.9172°
RAAN
334.8173°
Arg. of periapsis
99.684°
True anomaly
260.42929°
Mean anomaly
260.4531°
Eccentric anomaly
260.4412°
Mean motion
3.29861 °/min
Orbital period
109.14 mins
BSTAR
-0.000020817
Loading maneuver chart data...
Computing Atmospheric mass density...
Loading historical data...
Loading historical data...
Loading historical data...
Loading historical data...
Loading historical data...
Loading historical data...
Loading historical data...

Documentation

Showing up to 5 results
|